Flag for U.S.A. Weather past 2 weeks in Shreveport, Louisiana, U.S.A.

Now
79 °F

Passing clouds.


Feels Like: 81 °F
Forecast: 73 / 94 °F
Wind: 7 mph from East

Location: Shreveport Regional Airport

Current Time: Aug 1, 2015 at 3:05:24 AM

Latest Report: Aug 1, 2015 at 1:56 AM


Visibility: 10 mi

Pressure: 29.97 "Hg

Humidity: 58%

Dew point: 63 °F

Location of ShreveportLocation

Historic Weather in Shreveport — Graph

°F

Shreveport temperature yesterday

Maximum temperature yesterday: 95 °F (at 3:56 PM)
Minimum temperature yesterday: 76 °F (at 6:56 AM)
Average temperature yesterday: 85 °F

Past Weeks' High & Low Weather Summary

 TemperatureHumidityPressure
High103 °F (Jul 30, 2:56 PM)94% (Jul 27, 5:56 AM)30.07 "Hg (Jul 27, 5:56 AM)
Low74 °F (Jul 27, 5:56 AM)29% (Jul 24, 3:56 PM)29.82 "Hg (Jul 21, 6:56 PM)
Average88 °F60%29.94 "Hg
* Reported Jul 17 1:56 AM — Aug 1 1:56 AM, Shreveport, Weather by CustomWeather, © 2015

Note: Actual official high and low records may vary slightly from our data, if they occured in-between our weather recording intervals... More about our weather records

Advertising

Shreveport weather history for previous 24 hours

 ConditionsComfort  
Time TempWeatherWind HumidityBarometerVisibility
1:56 AM
Sat, Aug 1
79 °FPassing clouds.7 mph58%29.97 "Hg10 mi
12:56 AM82 °FPassing clouds.9 mph53%29.99 "Hg10 mi
11:56 PM
Fri, Jul 31
83 °FPassing clouds.9 mph51%30.01 "Hg10 mi
10:56 PM83 °FPassing clouds.7 mph55%30.01 "Hg10 mi
9:56 PM82 °FPassing clouds.5 mph56%30.00 "Hg10 mi
8:56 PM86 °FPassing clouds.6 mph45%29.98 "Hg10 mi
7:56 PM89 °FPassing clouds.6 mph35%29.96 "Hg10 mi
6:56 PM93 °FPassing clouds.14 mph31%29.96 "Hg10 mi
5:56 PM94 °FPassing clouds.13 mph32%29.97 "Hg10 mi
4:56 PM94 °FPassing clouds.14 mph29%29.99 "Hg10 mi
3:56 PM95 °FPassing clouds.10 mph29%30.01 "Hg10 mi
2:56 PM94 °FPassing clouds.7 mph31%30.03 "Hg10 mi
1:56 PM94 °FPassing clouds.13 mph31%30.04 "Hg10 mi
12:56 PM91 °FPassing clouds.10 mph36%30.06 "Hg10 mi
11:56 AM90 °FPassing clouds.12 mph39%30.06 "Hg10 mi
10:56 AM87 °FScattered clouds.10 mph45%30.07 "Hg10 mi
9:56 AM85 °FScattered clouds.12 mph48%30.06 "Hg10 mi
8:56 AM82 °FScattered clouds.8 mph55%30.07 "Hg10 mi
7:56 AM79 °FScattered clouds.8 mph62%30.06 "Hg10 mi
6:56 AM76 °FPassing clouds.9 mph69%30.05 "Hg10 mi
5:56 AM77 °FPartly cloudy.8 mph71%30.04 "Hg10 mi
4:56 AM77 °FPassing clouds.6 mph71%30.03 "Hg10 mi
3:56 AM78 °FPassing clouds.7 mph69%30.04 "Hg10 mi
Weather by CustomWeather, © 2015

See weather overviewHow to use our weather pages